Overview Statistics Trail Chart Weather Telemetry Raw packets
 

This is the latest recevied weather packets stored in our database for station/object KN6DHD. If no packets are shown the sender has not sent any weather packets the latest 10 day(s).

<< 107 108 109 110 111 112 113 >>
Time Temp. Humidity Pressure Rain* Wind** Luminosity Snow
1776922701 11.67° C 87% 1022.4 hPa 0 mm - 0 W/m² -
1776922398 12.22° C 87% 1022.6 hPa 0 mm - 0 W/m² -
1776922095 11.67° C 86% 1022.4 hPa 0 mm - 0 W/m² -
1776921794 12.22° C 85% 1022.4 hPa 0 mm - 0 W/m² -
1776921490 12.22° C 85% 1022.4 hPa 0 mm - 0 W/m² -
1776921193 12.22° C 84% 1022.5 hPa 0 mm - 0 W/m² -
1776920883 12.22° C 84% 1022.5 hPa 0 mm - 0 W/m² -
1776920581 12.22° C 83% 1022.7 hPa 0 mm - 0 W/m² -
1776920277 12.22° C 83% 1022.6 hPa 0 mm - 0 W/m² -
1776919973 12.22° C 83% 1022.4 hPa 0 mm - 0 W/m² -
1776919669 12.78° C 82% 1022.4 hPa 0 mm - 0 W/m² -
1776919366 12.78° C 81% 1022.4 hPa 0 mm - 0 W/m² -
1776919061 12.78° C 80% 1022.3 hPa 0 mm - 0 W/m² -
1776918759 12.78° C 80% 1022.3 hPa 0 mm - 0 W/m² -
1776918453 13.33° C 79% 1022.4 hPa 0 mm - 0 W/m² -
1776918150 13.33° C 78% 1022.1 hPa 0 mm - 0 W/m² -
1776917847 13.33° C 77% 1022 hPa 0 mm - 0 W/m² -
1776917545 13.89° C 76% 1022.2 hPa 0 mm - 0 W/m² -
1776917240 13.89° C 75% 1022.2 hPa 0 mm - 0 W/m² -
1776916938 13.89° C 74% 1022 hPa 0 mm - 0 W/m² -
1776916636 13.89° C 73% 1022.1 hPa 0 mm - 0 W/m² -
1776916332 14.44° C 73% 1021.9 hPa 0 mm - 0 W/m² -
1776916028 14.44° C 71% 1021.9 hPa 0 mm - 0 W/m² -
1776915725 15° C 70% 1022 hPa 0 mm - 0 W/m² -
1776915421 15° C 69% 1021.6 hPa 0 mm - 0 W/m² -

* Rain latest hour (hover to see other rain measurements)
** Current wind speed in m/s (hover to see current wind gust speed)